Location: San Jose
(9.9281°N, 84.0907°W)
Time: 06:28:22
(UTC-06:00)

ISS - Visible Passes

Search period start: 09 August 2020 00:00
Search period end: 19 August 2020 00:00
Orbit: 418 x 420 km, 51.6° (Epoch: 10 August)

Date Brightness Start Highest point End Pass type
(mag) Time Alt. Az. Time Alt. Az. Time Alt. Az.
09 Aug -3.0 18:48:26 10° NNW 18:51:32 35° NE 18:52:40 27° E visible
10 Aug -1.2 19:38:21 10° W 19:40:33 16° SW 19:40:40 16° SW visible
11 Aug -2.4 18:49:55 10° WNW 18:53:01 36° SW 18:55:45 12° S visible
16 Aug -1.0 04:57:38 10° SSE 04:59:53 17° SE 05:02:08 10° E visible
18 Aug -3.8 04:57:51 10° SW 05:01:11 86° NW 05:04:31 10° NE visible
